owner,sensor,date,latitude,longitude,vertical_datum,sea_water_practical_salinity,qcFlag 
NERRS,ioos:station:NOAA.NERRS:wkbfrwq:1,2019-01-01T00:45:00Z,30.4162,-87.8228,2.69,1.1,1111122 
NERRS,ioos:station:NOAA.NERRS:wkbfrwq:1,2019-01-01T01:45:00Z,30.4162,-87.8228,2.7,1.0,1111122 
NERRS,ioos:station:NOAA.NERRS:wkbfrwq:1,2019-01-01T02:45:00Z,30.4162,-87.8228,2.68,1.0,1111122 
NERRS,ioos:station:NOAA.NERRS:wkbfrwq:1,2019-01-01T03:45:00Z,30.4162,-87.8228,2.62,0.8,1111122 
NERRS,ioos:station:NOAA.NERRS:wkbfrwq:1,2019-01-01T04:45:00Z,30.4162,-87.8228,2.58,0.4,1111122 
NERRS,ioos:station:NOAA.NERRS:wkbfrwq:1,2019-01-01T05:45:00Z,30.4162,-87.8228,2.51,0.2,1111122 
NERRS,ioos:station:NOAA.NERRS:wkbfrwq:1,2019-01-01T06:45:00Z,30.4162,-87.8228,2.39,0.2,1111122 
NERRS,ioos:station:NOAA.NERRS:wkbfrwq:1,2019-01-01T07:45:00Z,30.4162,-87.8228,2.32,0.1,1111122 
NERRS,ioos:station:NOAA.NERRS:wkbfrwq:1,2019-01-01T08:45:00Z,30.4162,-87.8228,2.28,0.2,1111122 
NERRS,ioos:station:NOAA.NERRS:wkbfrwq:1,2019-01-01T09:45:00Z,30.4162,-87.8228,2.24,0.2,1111122 
NERRS,ioos:station:NOAA.NERRS:wkbfrwq:1,2019-01-01T10:45:00Z,30.4162,-87.8228,2.2,0.2,1111122 
NERRS,ioos:station:NOAA.NERRS:wkbfrwq:1,2019-01-01T11:45:00Z,30.4162,-87.8228,2.17,0.2,1111122 
NERRS,ioos:station:NOAA.NERRS:wkbfrwq:1,2019-01-01T13:45:00Z,30.4162,-87.8228,2.2,0.2,1111122 
NERRS,ioos:station:NOAA.NERRS:wkbfrwq:1,2019-01-01T14:45:00Z,30.4162,-87.8228,2.26,0.2,1111122 
NERRS,ioos:station:NOAA.NERRS:wkbfrwq:1,2019-01-01T15:45:00Z,30.4162,-87.8228,2.31,0.3,1111122 
NERRS,ioos:station:NOAA.NERRS:wkbfrwq:1,2019-01-01T16:45:00Z,30.4162,-87.8228,2.33,0.3,1111122 
NERRS,ioos:station:NOAA.NERRS:wkbfrwq:1,2019-01-01T18:45:00Z,30.4162,-87.8228,2.36,0.3,1111122 
NERRS,ioos:station:NOAA.NERRS:wkbfrwq:1,2019-01-01T19:45:00Z,30.4162,-87.8228,2.43,0.4,1111122 
NERRS,ioos:station:NOAA.NERRS:wkbfrwq:1,2019-01-01T20:45:00Z,30.4162,-87.8228,2.48,0.4,1111122 
NERRS,ioos:station:NOAA.NERRS:wkbfrwq:1,2019-01-01T22:45:00Z,30.4162,-87.8228,2.55,0.3,1111122 
NERRS,ioos:station:NOAA.NERRS:wkbfrwq:1,2019-01-01T23:45:00Z,30.4162,-87.8228,2.56,0.4,1111122 
NERRS,ioos:station:NOAA.NERRS:wkbfrwq:1,2019-01-02T00:45:00Z,30.4162,-87.8228,2.56,0.3,1111122 
NERRS,ioos:station:NOAA.NERRS:wkbfrwq:1,2019-01-02T01:45:00Z,30.4162,-87.8228,2.58,0.2,1111122 
NERRS,ioos:station:NOAA.NERRS:wkbfrwq:1,2019-01-02T02:45:00Z,30.4162,-87.8228,2.57,0.3,1111122 
NERRS,ioos:station:NOAA.NERRS:wkbfrwq:1,2019-01-02T03:45:00Z,30.4162,-87.8228,2.52,0.2,1111122 
NERRS,ioos:station:NOAA.NERRS:wkbfrwq:1,2019-01-02T04:45:00Z,30.4162,-87.8228,2.44,0.2,1111122 
NERRS,ioos:station:NOAA.NERRS:wkbfrwq:1,2019-01-02T05:45:00Z,30.4162,-87.8228,2.36,0.2,1111122 
NERRS,ioos:station:NOAA.NERRS:wkbfrwq:1,2019-01-02T06:45:00Z,30.4162,-87.8228,2.32,0.1,1111122 
NERRS,ioos:station:NOAA.NERRS:wkbfrwq:1,2019-01-02T07:45:00Z,30.4162,-87.8228,2.25,0.1,1111122 
NERRS,ioos:station:NOAA.NERRS:wkbfrwq:1,2019-01-02T08:45:00Z,30.4162,-87.8228,2.17,0.1,1111122 
NERRS,ioos:station:NOAA.NERRS:wkbfrwq:1,2019-01-02T09:45:00Z,30.4162,-87.8228,2.11,0.1,1111122 
NERRS,ioos:station:NOAA.NERRS:wkbfrwq:1,2019-01-02T10:45:00Z,30.4162,-87.8228,2.09,0.1,1111122 
NERRS,ioos:station:NOAA.NERRS:wkbfrwq:1,2019-01-02T11:45:00Z,30.4162,-87.8228,2.1,0.1,1111122 
NERRS,ioos:station:NOAA.NERRS:wkbfrwq:1,2019-01-02T12:45:00Z,30.4162,-87.8228,2.07,0.1,1111122 
NERRS,ioos:station:NOAA.NERRS:wkbfrwq:1,2019-01-02T13:45:00Z,30.4162,-87.8228,2.08,0.1,1111122 
NERRS,ioos:station:NOAA.NERRS:wkbfrwq:1,2019-01-02T14:45:00Z,30.4162,-87.8228,2.11,2.5,1111122 
NERRS,ioos:station:NOAA.NERRS:wkbfrwq:1,2019-01-02T15:45:00Z,30.4162,-87.8228,2.18,2.3,1111122 
NERRS,ioos:station:NOAA.NERRS:wkbfrwq:1,2019-01-02T16:45:00Z,30.4162,-87.8228,2.25,2.8,1111122 
NERRS,ioos:station:NOAA.NERRS:wkbfrwq:1,2019-01-02T17:45:00Z,30.4162,-87.8228,2.27,3.1,1111122 
NERRS,ioos:station:NOAA.NERRS:wkbfrwq:1,2019-01-02T18:45:00Z,30.4162,-87.8228,2.29,4.2,1111122 
NERRS,ioos:station:NOAA.NERRS:wkbfrwq:1,2019-01-02T19:45:00Z,30.4162,-87.8228,2.34,3.0,1111122 
NERRS,ioos:station:NOAA.NERRS:wkbfrwq:1,2019-01-02T21:45:00Z,30.4162,-87.8228,2.48,1.4,1111122 
NERRS,ioos:station:NOAA.NERRS:wkbfrwq:1,2019-01-02T23:45:00Z,30.4162,-87.8228,2.59,2.3,1111122 
NERRS,ioos:station:NOAA.NERRS:wkbfrwq:1,2019-01-03T00:45:00Z,30.4162,-87.8228,2.63,2.4,1111122 
NERRS,ioos:station:NOAA.NERRS:wkbfrwq:1,2019-01-03T01:45:00Z,30.4162,-87.8228,2.64,1.8,1111122 
NERRS,ioos:station:NOAA.NERRS:wkbfrwq:1,2019-01-03T02:45:00Z,30.4162,-87.8228,2.62,2.3,1111122 
NERRS,ioos:station:NOAA.NERRS:wkbfrwq:1,2019-01-03T03:45:00Z,30.4162,-87.8228,2.59,2.8,1111122 
NERRS,ioos:station:NOAA.NERRS:wkbfrwq:1,2019-01-03T04:45:00Z,30.4162,-87.8228,2.54,2.6,1111122 
NERRS,ioos:station:NOAA.NERRS:wkbfrwq:1,2019-01-03T05:45:00Z,30.4162,-87.8228,2.49,1.4,1111122 
NERRS,ioos:station:NOAA.NERRS:wkbfrwq:1,2019-01-03T06:45:00Z,30.4162,-87.8228,2.41,0.6,1111122 
NERRS,ioos:station:NOAA.NERRS:wkbfrwq:1,2019-01-03T07:45:00Z,30.4162,-87.8228,2.33,0.6,1111122 
NERRS,ioos:station:NOAA.NERRS:wkbfrwq:1,2019-01-03T08:45:00Z,30.4162,-87.8228,2.27,0.7,1111122 
NERRS,ioos:station:NOAA.NERRS:wkbfrwq:1,2019-01-03T09:45:00Z,30.4162,-87.8228,2.22,0.5,1111122 
NERRS,ioos:station:NOAA.NERRS:wkbfrwq:1,2019-01-03T10:45:00Z,30.4162,-87.8228,2.14,0.4,1111122 
NERRS,ioos:station:NOAA.NERRS:wkbfrwq:1,2019-01-03T11:45:00Z,30.4162,-87.8228,2.09,0.4,1111122 
NERRS,ioos:station:NOAA.NERRS:wkbfrwq:1,2019-01-03T12:45:00Z,30.4162,-87.8228,2.05,0.4,1111122 
NERRS,ioos:station:NOAA.NERRS:wkbfrwq:1,2019-01-03T13:45:00Z,30.4162,-87.8228,2.09,2.4,1111122 
NERRS,ioos:station:NOAA.NERRS:wkbfrwq:1,2019-01-03T14:45:00Z,30.4162,-87.8228,2.04,0.4,1111122 
NERRS,ioos:station:NOAA.NERRS:wkbfrwq:1,2019-01-03T15:45:00Z,30.4162,-87.8228,1.95,0.5,1111122 
NERRS,ioos:station:NOAA.NERRS:wkbfrwq:1,2019-01-03T16:45:00Z,30.4162,-87.8228,1.88,0.4,1111122 
NERRS,ioos:station:NOAA.NERRS:wkbfrwq:1,2019-01-03T17:45:00Z,30.4162,-87.8228,1.97,1.8,1111122 
NERRS,ioos:station:NOAA.NERRS:wkbfrwq:1,2019-01-03T19:45:00Z,30.4162,-87.8228,2.25,2.6,1111122 
NERRS,ioos:station:NOAA.NERRS:wkbfrwq:1,2019-01-03T20:45:00Z,30.4162,-87.8228,2.35,3.5,1111122 
NERRS,ioos:station:NOAA.NERRS:wkbfrwq:1,2019-01-03T21:45:00Z,30.4162,-87.8228,2.39,4.1,1111122 
NERRS,ioos:station:NOAA.NERRS:wkbfrwq:1,2019-01-03T23:45:00Z,30.4162,-87.8228,2.52,4.1,1111122 
NERRS,ioos:station:NOAA.NERRS:wkbfrwq:1,2019-01-04T00:45:00Z,30.4162,-87.8228,2.59,4.7,1111122 
NERRS,ioos:station:NOAA.NERRS:wkbfrwq:1,2019-01-04T01:45:00Z,30.4162,-87.8228,2.63,5.5,1111122 
NERRS,ioos:station:NOAA.NERRS:wkbfrwq:1,2019-01-04T02:45:00Z,30.4162,-87.8228,2.59,5.4,1111122 
NERRS,ioos:station:NOAA.NERRS:wkbfrwq:1,2019-01-04T03:45:00Z,30.4162,-87.8228,2.57,5.1,1111122 
NERRS,ioos:station:NOAA.NERRS:wkbfrwq:1,2019-01-04T04:45:00Z,30.4162,-87.8228,2.6,6.8,1111122 
NERRS,ioos:station:NOAA.NERRS:wkbfrwq:1,2019-01-04T05:45:00Z,30.4162,-87.8228,2.66,6.2,1111122 
NERRS,ioos:station:NOAA.NERRS:wkbfrwq:1,2019-01-04T06:45:00Z,30.4162,-87.8228,2.71,5.7,1111122 
NERRS,ioos:station:NOAA.NERRS:wkbfrwq:1,2019-01-04T07:45:00Z,30.4162,-87.8228,2.73,5.0,1111122 
NERRS,ioos:station:NOAA.NERRS:wkbfrwq:1,2019-01-04T08:45:00Z,30.4162,-87.8228,2.65,5.4,1111122 
NERRS,ioos:station:NOAA.NERRS:wkbfrwq:1,2019-01-04T09:45:00Z,30.4162,-87.8228,2.57,4.5,1111122 
NERRS,ioos:station:NOAA.NERRS:wkbfrwq:1,2019-01-04T10:45:00Z,30.4162,-87.8228,2.52,2.9,1111122 
NERRS,ioos:station:NOAA.NERRS:wkbfrwq:1,2019-01-04T11:45:00Z,30.4162,-87.8228,2.55,4.6,1111122 
NERRS,ioos:station:NOAA.NERRS:wkbfrwq:1,2019-01-04T12:45:00Z,30.4162,-87.8228,2.49,1.8,1111122 
NERRS,ioos:station:NOAA.NERRS:wkbfrwq:1,2019-01-04T13:45:00Z,30.4162,-87.8228,2.4,2.1,1111122 
NERRS,ioos:station:NOAA.NERRS:wkbfrwq:1,2019-01-04T14:45:00Z,30.4162,-87.8228,2.34,1.3,1111122 
NERRS,ioos:station:NOAA.NERRS:wkbfrwq:1,2019-01-04T16:45:00Z,30.4162,-87.8228,2.33,1.2,1111122 
NERRS,ioos:station:NOAA.NERRS:wkbfrwq:1,2019-01-04T17:45:00Z,30.4162,-87.8228,2.38,1.5,1111122 
NERRS,ioos:station:NOAA.NERRS:wkbfrwq:1,2019-01-04T18:45:00Z,30.4162,-87.8228,2.36,1.1,1111122 
NERRS,ioos:station:NOAA.NERRS:wkbfrwq:1,2019-01-04T20:45:00Z,30.4162,-87.8228,2.31,1.3,1111122 
NERRS,ioos:station:NOAA.NERRS:wkbfrwq:1,2019-01-04T21:45:00Z,30.4162,-87.8228,2.39,1.4,1111122 
NERRS,ioos:station:NOAA.NERRS:wkbfrwq:1,2019-01-04T22:45:00Z,30.4162,-87.8228,2.49,2.0,1111122 
NERRS,ioos:station:NOAA.NERRS:wkbfrwq:1,2019-01-05T01:45:00Z,30.4162,-87.8228,2.55,2.0,1111122 
NERRS,ioos:station:NOAA.NERRS:wkbfrwq:1,2019-01-05T02:45:00Z,30.4162,-87.8228,2.56,2.7,1111122 
NERRS,ioos:station:NOAA.NERRS:wkbfrwq:1,2019-01-05T03:45:00Z,30.4162,-87.8228,2.57,1.4,1111122 
NERRS,ioos:station:NOAA.NERRS:wkbfrwq:1,2019-01-05T04:45:00Z,30.4162,-87.8228,2.52,0.7,1111122 
NERRS,ioos:station:NOAA.NERRS:wkbfrwq:1,2019-01-05T05:45:00Z,30.4162,-87.8228,2.47,0.6,1111122 
NERRS,ioos:station:NOAA.NERRS:wkbfrwq:1,2019-01-05T06:45:00Z,30.4162,-87.8228,2.4,0.5,1111122 
NERRS,ioos:station:NOAA.NERRS:wkbfrwq:1,2019-01-05T07:45:00Z,30.4162,-87.8228,2.33,0.4,1111122 
NERRS,ioos:station:NOAA.NERRS:wkbfrwq:1,2019-01-05T08:45:00Z,30.4162,-87.8228,2.25,0.4,1111122 
NERRS,ioos:station:NOAA.NERRS:wkbfrwq:1,2019-01-05T09:45:00Z,30.4162,-87.8228,2.19,0.4,1111122 
NERRS,ioos:station:NOAA.NERRS:wkbfrwq:1,2019-01-05T10:45:00Z,30.4162,-87.8228,2.12,0.3,1111122 
NERRS,ioos:station:NOAA.NERRS:wkbfrwq:1,2019-01-05T11:45:00Z,30.4162,-87.8228,2.07,0.3,1111122 
NERRS,ioos:station:NOAA.NERRS:wkbfrwq:1,2019-01-05T12:45:00Z,30.4162,-87.8228,2.05,0.3,1111122 
NERRS,ioos:station:NOAA.NERRS:wkbfrwq:1,2019-01-05T13:45:00Z,30.4162,-87.8228,2.02,0.2,1111122 
NERRS,ioos:station:NOAA.NERRS:wkbfrwq:1,2019-01-05T14:45:00Z,30.4162,-87.8228,1.98,0.2,1111122 
NERRS,ioos:station:NOAA.NERRS:wkbfrwq:1,2019-01-05T15:45:00Z,30.4162,-87.8228,1.99,0.2,1111122 
NERRS,ioos:station:NOAA.NERRS:wkbfrwq:1,2019-01-05T17:45:00Z,30.4162,-87.8228,2.04,0.3,1111122 
NERRS,ioos:station:NOAA.NERRS:wkbfrwq:1,2019-01-05T19:45:00Z,30.4162,-87.8228,2.13,0.7,1111122 
NERRS,ioos:station:NOAA.NERRS:wkbfrwq:1,2019-01-05T20:45:00Z,30.4162,-87.8228,2.22,0.7,1111122 
NERRS,ioos:station:NOAA.NERRS:wkbfrwq:1,2019-01-05T21:45:00Z,30.4162,-87.8228,2.31,0.7,1111122 
NERRS,ioos:station:NOAA.NERRS:wkbfrwq:1,2019-01-05T22:45:00Z,30.4162,-87.8228,2.37,0.9,1111122 
NERRS,ioos:station:NOAA.NERRS:wkbfrwq:1,2019-01-05T23:45:00Z,30.4162,-87.8228,2.43,2.0,1111122 
NERRS,ioos:station:NOAA.NERRS:wkbfrwq:1,2019-01-06T00:45:00Z,30.4162,-87.8228,2.51,1.6,1111122 
NERRS,ioos:station:NOAA.NERRS:wkbfrwq:1,2019-01-06T01:45:00Z,30.4162,-87.8228,2.57,2.4,1111122 
NERRS,ioos:station:NOAA.NERRS:wkbfrwq:1,2019-01-06T02:45:00Z,30.4162,-87.8228,2.58,2.8,1111122 
NERRS,ioos:station:NOAA.NERRS:wkbfrwq:1,2019-01-06T04:45:00Z,30.4162,-87.8228,2.55,4.5,1111122 
NERRS,ioos:station:NOAA.NERRS:wkbfrwq:1,2019-01-06T05:45:00Z,30.4162,-87.8228,2.51,2.8,1111122 
NERRS,ioos:station:NOAA.NERRS:wkbfrwq:1,2019-01-06T06:45:00Z,30.4162,-87.8228,2.46,1.2,1111122 
NERRS,ioos:station:NOAA.NERRS:wkbfrwq:1,2019-01-06T07:45:00Z,30.4162,-87.8228,2.39,0.6,1111122 
NERRS,ioos:station:NOAA.NERRS:wkbfrwq:1,2019-01-06T08:45:00Z,30.4162,-87.8228,2.32,0.5,1111122 
NERRS,ioos:station:NOAA.NERRS:wkbfrwq:1,2019-01-06T09:45:00Z,30.4162,-87.8228,2.22,0.3,1111122 
NERRS,ioos:station:NOAA.NERRS:wkbfrwq:1,2019-01-06T10:45:00Z,30.4162,-87.8228,2.15,0.3,1111122 
NERRS,ioos:station:NOAA.NERRS:wkbfrwq:1,2019-01-06T11:45:00Z,30.4162,-87.8228,2.1,0.4,1111122 
NERRS,ioos:station:NOAA.NERRS:wkbfrwq:1,2019-01-06T12:45:00Z,30.4162,-87.8228,2.06,0.5,1111122 
NERRS,ioos:station:NOAA.NERRS:wkbfrwq:1,2019-01-06T13:45:00Z,30.4162,-87.8228,2.03,0.3,1111122 
NERRS,ioos:station:NOAA.NERRS:wkbfrwq:1,2019-01-06T14:45:00Z,30.4162,-87.8228,1.99,0.3,1111122 
NERRS,ioos:station:NOAA.NERRS:wkbfrwq:1,2019-01-06T15:45:00Z,30.4162,-87.8228,1.95,0.3,1111122 
NERRS,ioos:station:NOAA.NERRS:wkbfrwq:1,2019-01-06T16:45:00Z,30.4162,-87.8228,1.95,2.1,1111122 
NERRS,ioos:station:NOAA.NERRS:wkbfrwq:1,2019-01-06T17:45:00Z,30.4162,-87.8228,1.97,2.5,1111122 
NERRS,ioos:station:NOAA.NERRS:wkbfrwq:1,2019-01-06T18:45:00Z,30.4162,-87.8228,2.0,2.2,1111122 
NERRS,ioos:station:NOAA.NERRS:wkbfrwq:1,2019-01-06T19:45:00Z,30.4162,-87.8228,2.06,2.3,1111122 
NERRS,ioos:station:NOAA.NERRS:wkbfrwq:1,2019-01-06T20:45:00Z,30.4162,-87.8228,2.15,1.1,1111122 
NERRS,ioos:station:NOAA.NERRS:wkbfrwq:1,2019-01-06T21:45:00Z,30.4162,-87.8228,2.23,1.6,1111122 
NERRS,ioos:station:NOAA.NERRS:wkbfrwq:1,2019-01-06T23:45:00Z,30.4162,-87.8228,2.35,2.2,1111122 
NERRS,ioos:station:NOAA.NERRS:wkbfrwq:1,2019-01-07T00:45:00Z,30.4162,-87.8228,2.44,2.8,1111122 
NERRS,ioos:station:NOAA.NERRS:wkbfrwq:1,2019-01-07T01:45:00Z,30.4162,-87.8228,2.53,3.0,1111122 
NERRS,ioos:station:NOAA.NERRS:wkbfrwq:1,2019-01-07T02:45:00Z,30.4162,-87.8228,2.6,3.2,1111122 
NERRS,ioos:station:NOAA.NERRS:wkbfrwq:1,2019-01-07T03:45:00Z,30.4162,-87.8228,2.63,3.2,1111122 
NERRS,ioos:station:NOAA.NERRS:wkbfrwq:1,2019-01-07T04:45:00Z,30.4162,-87.8228,2.62,3.3,1111122 
NERRS,ioos:station:NOAA.NERRS:wkbfrwq:1,2019-01-07T05:45:00Z,30.4162,-87.8228,2.58,3.2,1111122 
NERRS,ioos:station:NOAA.NERRS:wkbfrwq:1,2019-01-07T06:45:00Z,30.4162,-87.8228,2.53,3.1,1111122 
NERRS,ioos:station:NOAA.NERRS:wkbfrwq:1,2019-01-07T08:45:00Z,30.4162,-87.8228,2.41,2.4,1111122 
NERRS,ioos:station:NOAA.NERRS:wkbfrwq:1,2019-01-07T09:45:00Z,30.4162,-87.8228,2.34,1.6,1111122 
NERRS,ioos:station:NOAA.NERRS:wkbfrwq:1,2019-01-07T10:45:00Z,30.4162,-87.8228,2.26,1.6,1111122 
NERRS,ioos:station:NOAA.NERRS:wkbfrwq:1,2019-01-07T11:45:00Z,30.4162,-87.8228,2.19,0.9,1111122 
NERRS,ioos:station:NOAA.NERRS:wkbfrwq:1,2019-01-07T12:45:00Z,30.4162,-87.8228,2.15,0.8,1111122 
NERRS,ioos:station:NOAA.NERRS:wkbfrwq:1,2019-01-07T13:45:00Z,30.4162,-87.8228,2.13,1.1,1111122 
NERRS,ioos:station:NOAA.NERRS:wkbfrwq:1,2019-01-07T14:45:00Z,30.4162,-87.8228,2.12,3.4,1111122 
NERRS,ioos:station:NOAA.NERRS:wkbfrwq:1,2019-01-07T15:45:00Z,30.4162,-87.8228,2.12,4.0,1111122 
NERRS,ioos:station:NOAA.NERRS:wkbfrwq:1,2019-01-07T17:45:00Z,30.4162,-87.8228,2.13,4.1,1111122 
NERRS,ioos:station:NOAA.NERRS:wkbfrwq:1,2019-01-07T18:45:00Z,30.4162,-87.8228,2.15,3.3,1111122 
NERRS,ioos:station:NOAA.NERRS:wkbfrwq:1,2019-01-07T19:45:00Z,30.4162,-87.8228,2.18,3.7,1111122 
NERRS,ioos:station:NOAA.NERRS:wkbfrwq:1,2019-01-07T21:45:00Z,30.4162,-87.8228,2.28,3.1,1111122 
NERRS,ioos:station:NOAA.NERRS:wkbfrwq:1,2019-01-07T23:45:00Z,30.4162,-87.8228,2.34,3.7,1111122 
NERRS,ioos:station:NOAA.NERRS:wkbfrwq:1,2019-01-08T00:45:00Z,30.4162,-87.8228,2.37,3.9,1111122 
NERRS,ioos:station:NOAA.NERRS:wkbfrwq:1,2019-01-08T01:45:00Z,30.4162,-87.8228,2.43,3.5,1111122 
NERRS,ioos:station:NOAA.NERRS:wkbfrwq:1,2019-01-08T02:45:00Z,30.4162,-87.8228,2.5,3.1,1111122 
NERRS,ioos:station:NOAA.NERRS:wkbfrwq:1,2019-01-08T03:45:00Z,30.4162,-87.8228,2.58,3.4,1111122 
NERRS,ioos:station:NOAA.NERRS:wkbfrwq:1,2019-01-08T04:45:00Z,30.4162,-87.8228,2.61,3.5,1111122 
NERRS,ioos:station:NOAA.NERRS:wkbfrwq:1,2019-01-08T05:45:00Z,30.4162,-87.8228,2.58,3.5,1111122 
NERRS,ioos:station:NOAA.NERRS:wkbfrwq:1,2019-01-08T06:45:00Z,30.4162,-87.8228,2.53,3.8,1111122 
NERRS,ioos:station:NOAA.NERRS:wkbfrwq:1,2019-01-08T07:45:00Z,30.4162,-87.8228,2.49,3.8,1111122 
NERRS,ioos:station:NOAA.NERRS:wkbfrwq:1,2019-01-08T08:45:00Z,30.4162,-87.8228,2.47,3.9,1111122 
NERRS,ioos:station:NOAA.NERRS:wkbfrwq:1,2019-01-08T09:45:00Z,30.4162,-87.8228,2.39,3.0,1111122 
NERRS,ioos:station:NOAA.NERRS:wkbfrwq:1,2019-01-08T10:45:00Z,30.4162,-87.8228,2.31,2.3,1111122 
NERRS,ioos:station:NOAA.NERRS:wkbfrwq:1,2019-01-08T11:45:00Z,30.4162,-87.8228,2.24,2.0,1111122 
NERRS,ioos:station:NOAA.NERRS:wkbfrwq:1,2019-01-08T12:45:00Z,30.4162,-87.8228,2.2,2.9,1111122 
NERRS,ioos:station:NOAA.NERRS:wkbfrwq:1,2019-01-08T13:45:00Z,30.4162,-87.8228,2.18,3.2,1111122 
NERRS,ioos:station:NOAA.NERRS:wkbfrwq:1,2019-01-08T14:45:00Z,30.4162,-87.8228,2.17,4.1,1111122 
NERRS,ioos:station:NOAA.NERRS:wkbfrwq:1,2019-01-08T15:45:00Z,30.4162,-87.8228,2.17,4.8,1111122 
NERRS,ioos:station:NOAA.NERRS:wkbfrwq:1,2019-01-08T16:45:00Z,30.4162,-87.8228,2.18,4.8,1111122 
NERRS,ioos:station:NOAA.NERRS:wkbfrwq:1,2019-01-08T17:45:00Z,30.4162,-87.8228,2.2,4.4,1111122 
NERRS,ioos:station:NOAA.NERRS:wkbfrwq:1,2019-01-08T18:45:00Z,30.4162,-87.8228,2.22,4.3,1111122 
NERRS,ioos:station:NOAA.NERRS:wkbfrwq:1,2019-01-08T19:45:00Z,30.4162,-87.8228,2.26,3.7,1111122 
NERRS,ioos:station:NOAA.NERRS:wkbfrwq:1,2019-01-08T20:45:00Z,30.4162,-87.8228,2.3,3.6,1111122 
NERRS,ioos:station:NOAA.NERRS:wkbfrwq:1,2019-01-08T21:45:00Z,30.4162,-87.8228,2.37,3.2,1111122 
NERRS,ioos:station:NOAA.NERRS:wkbfrwq:1,2019-01-08T22:45:00Z,30.4162,-87.8228,2.42,3.2,1111122 
NERRS,ioos:station:NOAA.NERRS:wkbfrwq:1,2019-01-09T00:45:00Z,30.4162,-87.8228,2.48,3.9,1111122 
NERRS,ioos:station:NOAA.NERRS:wkbfrwq:1,2019-01-09T01:45:00Z,30.4162,-87.8228,2.51,4.2,1111122 
NERRS,ioos:station:NOAA.NERRS:wkbfrwq:1,2019-01-09T02:45:00Z,30.4162,-87.8228,2.58,3.9,1111122 
NERRS,ioos:station:NOAA.NERRS:wkbfrwq:1,2019-01-09T03:45:00Z,30.4162,-87.8228,2.64,4.1,1111122 
NERRS,ioos:station:NOAA.NERRS:wkbfrwq:1,2019-01-09T04:45:00Z,30.4162,-87.8228,2.65,4.3,1111122 
NERRS,ioos:station:NOAA.NERRS:wkbfrwq:1,2019-01-09T05:45:00Z,30.4162,-87.8228,2.62,3.8,1111122 
NERRS,ioos:station:NOAA.NERRS:wkbfrwq:1,2019-01-09T06:45:00Z,30.4162,-87.8228,2.59,4.1,1111122 
NERRS,ioos:station:NOAA.NERRS:wkbfrwq:1,2019-01-09T07:45:00Z,30.4162,-87.8228,2.52,3.6,1111122 
NERRS,ioos:station:NOAA.NERRS:wkbfrwq:1,2019-01-09T08:45:00Z,30.4162,-87.8228,2.45,3.4,1111122 
NERRS,ioos:station:NOAA.NERRS:wkbfrwq:1,2019-01-09T09:45:00Z,30.4162,-87.8228,2.4,3.9,1111122 
NERRS,ioos:station:NOAA.NERRS:wkbfrwq:1,2019-01-09T10:45:00Z,30.4162,-87.8228,2.32,3.1,1111122 
NERRS,ioos:station:NOAA.NERRS:wkbfrwq:1,2019-01-09T11:45:00Z,30.4162,-87.8228,2.23,1.0,1111122 
NERRS,ioos:station:NOAA.NERRS:wkbfrwq:1,2019-01-09T12:45:00Z,30.4162,-87.8228,2.16,1.0,1111122 
NERRS,ioos:station:NOAA.NERRS:wkbfrwq:1,2019-01-09T13:45:00Z,30.4162,-87.8228,2.13,0.9,1111122 
NERRS,ioos:station:NOAA.NERRS:wkbfrwq:1,2019-01-09T14:45:00Z,30.4162,-87.8228,2.1,0.9,1111122 
NERRS,ioos:station:NOAA.NERRS:wkbfrwq:1,2019-01-09T17:45:00Z,30.4162,-87.8228,2.02,1.4,1111122 
NERRS,ioos:station:NOAA.NERRS:wkbfrwq:1,2019-01-09T18:45:00Z,30.4162,-87.8228,2.02,1.0,1111122 
NERRS,ioos:station:NOAA.NERRS:wkbfrwq:1,2019-01-09T19:45:00Z,30.4162,-87.8228,2.03,1.0,1111122 
NERRS,ioos:station:NOAA.NERRS:wkbfrwq:1,2019-01-09T21:45:00Z,30.4162,-87.8228,2.14,1.5,1111122 
NERRS,ioos:station:NOAA.NERRS:wkbfrwq:1,2019-01-09T23:45:00Z,30.4162,-87.8228,2.24,4.7,1111122 
NERRS,ioos:station:NOAA.NERRS:wkbfrwq:1,2019-01-10T00:45:00Z,30.4162,-87.8228,2.28,4.9,1111122 
NERRS,ioos:station:NOAA.NERRS:wkbfrwq:1,2019-01-10T01:45:00Z,30.4162,-87.8228,2.33,4.2,1111122 
NERRS,ioos:station:NOAA.NERRS:wkbfrwq:1,2019-01-10T02:45:00Z,30.4162,-87.8228,2.38,4.3,1111122 
NERRS,ioos:station:NOAA.NERRS:wkbfrwq:1,2019-01-10T03:45:00Z,30.4162,-87.8228,2.42,4.7,1111122 
NERRS,ioos:station:NOAA.NERRS:wkbfrwq:1,2019-01-10T04:45:00Z,30.4162,-87.8228,2.45,4.3,1111122 
NERRS,ioos:station:NOAA.NERRS:wkbfrwq:1,2019-01-10T05:45:00Z,30.4162,-87.8228,2.46,4.3,1111122 
NERRS,ioos:station:NOAA.NERRS:wkbfrwq:1,2019-01-10T06:45:00Z,30.4162,-87.8228,2.39,3.6,1111122 
NERRS,ioos:station:NOAA.NERRS:wkbfrwq:1,2019-01-10T07:45:00Z,30.4162,-87.8228,2.32,4.3,1111122 
NERRS,ioos:station:NOAA.NERRS:wkbfrwq:1,2019-01-10T08:45:00Z,30.4162,-87.8228,2.29,4.1,1111122 
NERRS,ioos:station:NOAA.NERRS:wkbfrwq:1,2019-01-10T09:45:00Z,30.4162,-87.8228,2.24,3.2,1111122 
NERRS,ioos:station:NOAA.NERRS:wkbfrwq:1,2019-01-10T10:45:00Z,30.4162,-87.8228,2.19,2.4,1111122 
NERRS,ioos:station:NOAA.NERRS:wkbfrwq:1,2019-01-10T11:45:00Z,30.4162,-87.8228,2.13,2.1,1111122 
NERRS,ioos:station:NOAA.NERRS:wkbfrwq:1,2019-01-10T12:45:00Z,30.4162,-87.8228,2.09,1.7,1111122 
NERRS,ioos:station:NOAA.NERRS:wkbfrwq:1,2019-01-10T13:45:00Z,30.4162,-87.8228,2.07,4.5,1111122 
NERRS,ioos:station:NOAA.NERRS:wkbfrwq:1,2019-01-10T14:45:00Z,30.4162,-87.8228,2.05,2.1,1111122 
NERRS,ioos:station:NOAA.NERRS:wkbfrwq:1,2019-01-10T15:45:00Z,30.4162,-87.8228,2.01,1.1,1111122 
NERRS,ioos:station:NOAA.NERRS:wkbfrwq:1,2019-01-10T16:45:00Z,30.4162,-87.8228,2.03,3.5,1111122 
NERRS,ioos:station:NOAA.NERRS:wkbfrwq:1,2019-01-10T18:45:00Z,30.4162,-87.8228,2.11,1.6,1111122 
NERRS,ioos:station:NOAA.NERRS:wkbfrwq:1,2019-01-10T19:45:00Z,30.4162,-87.8228,2.13,2.1,1111122 
NERRS,ioos:station:NOAA.NERRS:wkbfrwq:1,2019-01-10T20:45:00Z,30.4162,-87.8228,2.19,2.9,1111122 
NERRS,ioos:station:NOAA.NERRS:wkbfrwq:1,2019-01-10T21:45:00Z,30.4162,-87.8228,2.26,2.2,1111122 
NERRS,ioos:station:NOAA.NERRS:wkbfrwq:1,2019-01-10T23:45:00Z,30.4162,-87.8228,2.27,3.0,1111122 
NERRS,ioos:station:NOAA.NERRS:wkbfrwq:1,2019-01-11T00:45:00Z,30.4162,-87.8228,2.29,4.0,1111122 
NERRS,ioos:station:NOAA.NERRS:wkbfrwq:1,2019-01-11T01:45:00Z,30.4162,-87.8228,2.32,3.5,1111122 
NERRS,ioos:station:NOAA.NERRS:wkbfrwq:1,2019-01-11T02:45:00Z,30.4162,-87.8228,2.36,3.9,1111122 
NERRS,ioos:station:NOAA.NERRS:wkbfrwq:1,2019-01-11T03:45:00Z,30.4162,-87.8228,2.37,3.8,1111122 
NERRS,ioos:station:NOAA.NERRS:wkbfrwq:1,2019-01-11T04:45:00Z,30.4162,-87.8228,2.35,4.0,1111122 
NERRS,ioos:station:NOAA.NERRS:wkbfrwq:1,2019-01-11T05:45:00Z,30.4162,-87.8228,2.34,5.4,1111122 
NERRS,ioos:station:NOAA.NERRS:wkbfrwq:1,2019-01-11T06:45:00Z,30.4162,-87.8228,2.38,4.7,1111122 
NERRS,ioos:station:NOAA.NERRS:wkbfrwq:1,2019-01-11T07:45:00Z,30.4162,-87.8228,2.4,3.9,1111122 
NERRS,ioos:station:NOAA.NERRS:wkbfrwq:1,2019-01-11T08:45:00Z,30.4162,-87.8228,2.41,4.6,1111122 
NERRS,ioos:station:NOAA.NERRS:wkbfrwq:1,2019-01-11T09:45:00Z,30.4162,-87.8228,2.38,4.0,1111122 
NERRS,ioos:station:NOAA.NERRS:wkbfrwq:1,2019-01-11T10:45:00Z,30.4162,-87.8228,2.33,3.8,1111122 
NERRS,ioos:station:NOAA.NERRS:wkbfrwq:1,2019-01-11T11:45:00Z,30.4162,-87.8228,2.28,4.1,1111122 
NERRS,ioos:station:NOAA.NERRS:wkbfrwq:1,2019-01-11T12:45:00Z,30.4162,-87.8228,2.24,4.4,1111122 
NERRS,ioos:station:NOAA.NERRS:wkbfrwq:1,2019-01-11T13:45:00Z,30.4162,-87.8228,2.21,4.2,1111122 
NERRS,ioos:station:NOAA.NERRS:wkbfrwq:1,2019-01-11T14:45:00Z,30.4162,-87.8228,2.2,5.4,1111122 
NERRS,ioos:station:NOAA.NERRS:wkbfrwq:1,2019-01-11T15:45:00Z,30.4162,-87.8228,2.22,5.3,1111122 
NERRS,ioos:station:NOAA.NERRS:wkbfrwq:1,2019-01-11T16:45:00Z,30.4162,-87.8228,2.25,5.3,1111122 
NERRS,ioos:station:NOAA.NERRS:wkbfrwq:1,2019-01-11T17:45:00Z,30.4162,-87.8228,2.25,5.3,1111122 
NERRS,ioos:station:NOAA.NERRS:wkbfrwq:1,2019-01-11T18:45:00Z,30.4162,-87.8228,2.26,5.6,1111122 
NERRS,ioos:station:NOAA.NERRS:wkbfrwq:1,2019-01-11T19:45:00Z,30.4162,-87.8228,2.28,5.7,1111122 
NERRS,ioos:station:NOAA.NERRS:wkbfrwq:1,2019-01-11T21:45:00Z,30.4162,-87.8228,2.34,4.8,1111122 
NERRS,ioos:station:NOAA.NERRS:wkbfrwq:1,2019-01-11T22:45:00Z,30.4162,-87.8228,2.34,5.2,1111122 
NERRS,ioos:station:NOAA.NERRS:wkbfrwq:1,2019-01-12T00:45:00Z,30.4162,-87.8228,2.33,5.4,1111122 
NERRS,ioos:station:NOAA.NERRS:wkbfrwq:1,2019-01-12T01:45:00Z,30.4162,-87.8228,2.36,4.8,1111122 
NERRS,ioos:station:NOAA.NERRS:wkbfrwq:1,2019-01-12T02:45:00Z,30.4162,-87.8228,2.39,4.2,1111122 
NERRS,ioos:station:NOAA.NERRS:wkbfrwq:1,2019-01-12T03:45:00Z,30.4162,-87.8228,2.43,4.2,1111122 
NERRS,ioos:station:NOAA.NERRS:wkbfrwq:1,2019-01-12T04:45:00Z,30.4162,-87.8228,2.45,4.0,1111122 
NERRS,ioos:station:NOAA.NERRS:wkbfrwq:1,2019-01-12T05:45:00Z,30.4162,-87.8228,2.48,4.3,1111122 
NERRS,ioos:station:NOAA.NERRS:wkbfrwq:1,2019-01-12T06:45:00Z,30.4162,-87.8228,2.49,4.2,1111122 
NERRS,ioos:station:NOAA.NERRS:wkbfrwq:1,2019-01-12T08:45:00Z,30.4162,-87.8228,2.45,4.4,1111122 
NERRS,ioos:station:NOAA.NERRS:wkbfrwq:1,2019-01-12T11:45:00Z,30.4162,-87.8228,2.33,5.4,1111122 
NERRS,ioos:station:NOAA.NERRS:wkbfrwq:1,2019-01-12T12:45:00Z,30.4162,-87.8228,2.32,5.4,1111122 
NERRS,ioos:station:NOAA.NERRS:wkbfrwq:1,2019-01-12T13:45:00Z,30.4162,-87.8228,2.31,4.8,1111122 
NERRS,ioos:station:NOAA.NERRS:wkbfrwq:1,2019-01-12T14:45:00Z,30.4162,-87.8228,2.29,4.9,1111122 
NERRS,ioos:station:NOAA.NERRS:wkbfrwq:1,2019-01-12T15:45:00Z,30.4162,-87.8228,2.31,5.2,1111122 